GFSNW_con_3kmhel_096.txt.gz
Helicity
57 58 57 59 39 44 66 81 91 66 35 57 51 39 85 81 45 26 24 44 274 358 282 322 120 145 181 98 54 70 74 78 65 94 113 87 71 60 57 62 41 77 58 47
52 56 60 58 40 54 75 106 82 64 22 43 35 17 45 7 20 9 -23 131 203 291 258 130 179 217 271 243 139 113 119 64 104 77 75 85 85 90 100 104 64 34 54 59
53 57 62 58 43 54 65 99 116 73 37 35 9 -18 1 57 43 8 -28 137 15 86 120 193 254 292 269 246 308 231 171 116 72 89 75 78 85 77 65 71 61 60 36 51
56 65 64 62 53 43 51 116 118 72 58 20 0 3 -12 89 58 22 15 -27 -7 14 59 217 354 426 331 176 324 316 222 161 106 110 124 97 80 66 54 44 37 43 61 54
65 54 54 67 55 58 60 114 97 51 28 2 -9 8 -5 34 54 4 18 16 13 -37 -22 63 251 330 318 277 221 219 453 265 165 174 110 93 88 75 51 38 34 22 16 20
34 36 45 50 52 52 68 71 45 25 33 -3 -2 -3 19 22 43 1 14 43 39 -1 -6 48 44 55 100 114 90 81 25 76 166 138 93 87 68 87 62 46 61 49 66 58
32 28 47 51 50 43 63 59 43 43 66 9 7 -1 30 29 36 10 43 41 27 38 94 81 1 -1 31 39 36 16 17 6 20 53 61 95 74 95 121 76 72 91 85 68
24 28 47 50 58 41 60 55 34 26 57 14 6 22 58 32 24 3 4 31 53 95 69 16 3 -14 -11 31 55 16 25 19 42 37 55 53 59 79 94 90 46 63 77 85
31 25 45 47 59 34 42 45 42 12 38 31 13 8 42 50 46 43 17 27 20 46 27 29 16 -10 22 29 11 29 16 23 30 25 60 84 105 127 87 45 32 73 85 109
52 3 49 29 39 30 26 33 58 24 34 13 8 19 32 21 35 31 42 61 39 41 44 30 40 28 31 17 21 32 25 18 46 57 64 59 113 124 128 53 66 -25 17 80
42 31 38 31 27 16 15 12 54 29 15 0 27 -2 -6 -2 11 36 56 35 29 50 49 36 39 60 64 44 50 45 46 34 47 54 57 66 50 38 33 33 50 12 47 46
51 32 38 29 9 6 -10 -2 28 64 25 11 16 35 32 6 6 18 26 48 53 62 53 50 34 49 66 74 49 58 50 66 54 54 45 28 24 46 52 60 59 79 50 33
35 11 16 12 8 0 -13 -18 22 43 12 0 10 17 19 -22 -2 -4 15 12 35 43 40 57 39 40 39 66 58 56 35 34 32 5 27 36 41 21 33 58 67 77 67 47
25 18 13 9 15 0 -19 0 21 21 7 14 36 24 6 -1 -13 46 24 0 -1 16 23 50 48 48 39 42 49 42 41 27 39 28 11 8 46 74 63 54 48 46 57 68
21 12 10 5 16 -7 -23 -25 7 19 -4 6 27 68 40 -2 -15 -32 33 19 -2 9 32 56 44 31 39 24 20 39 43 40 51 48 44 60 57 56 47 50 61 64 63 69
22 19 10 0 -5 -19 -9 -31 -21 29 13 -8 -10 14 -8 -5 -17 -37 27 36 30 12 21 51 33 28 32 60 56 46 30 26 42 27 16 33 13 6 18 14 13 19 33 39
27 17 -28 -40 -3 -1 34 21 36 19 139 10 -5 -26 12 48 68 76 47 28 14 12 5 16 14 25 16 16 48 37 28 31 31 31 29 20 16 29 23 22 13 10 33 46
29 32 41 140 124 37 -2 -7 11 82 94 30 30 45 34 26 19 23 22 21 23 15 -2 12 11 17 11 25 47 37 39 32 44 47 64 77 49 36 31 16 13 26 42 51
43 60 108 110 148 143 61 36 63 44 43 39 38 32 15 15 18 30 29 16 21 26 -16 1 19 13 -6 40 23 38 60 53 44 37 45 52 52 42 41 41 55 67 80 80
42 71 97 67 56 110 124 90 51 48 49 44 12 4 -14 -10 19 30 31 13 12 -25 -4 -3 11 24 68 80 109 91 83 81 62 13 25 27 37 44 53 57 61 73 82 85
75 70 97 103 165 164 88 84 58 50 24 18 8 -22 -21 -19 1 33 -1 1 4 27 28 6 -16 0 30 67 86 89 84 76 79 84 76 70 68 46 44 47 59 70 83 87
90 66 186 135 79 83 73 60 45 23 17 14 13 -14 -16 -14 -8 15 10 8 9 39 -30 -33 -12 -5 72 61 68 67 55 47 55 57 56 70 81 81 77 70 84 95 75 60
109 121 189 112 85 56 26 24 29 17 3 9 14 -1 -13 -11 -6 -4 8 13 25 -6 22 1 11 61 72 67 69 76 64 58 66 80 93 89 89 98 90 75 41 19 32 39
121 112 95 135 68 20 21 13 24 33 22 28 13 26 13 11 -2 -6 8 -4 0 28 15 2 41 64 68 60 59 72 88 98 98 86 71 70 69 65 47 33 24 31 54 60
77 152 123 53 49 51 45 36 49 46 44 50 31 53 29 20 9 6 -2 5 12 8 -12 47 84 69 63 75 92 101 84 64 57 51 53 50 45 51 66 65 74 87 93 100
106 84 92 81 55 39 37 43 59 49 53 53 34 32 28 10 -3 -19 -10 -6 -9 -5 54 113 112 90 84 98 103 84 69 72 80 80 85 88 90 104 120 120 117 104 91 79
131 75 110 102 90 72 84 82 62 64 46 52 33 7 17 33 -13 -26 -26 -26 46 84 116 116 106 100 96 85 72 73 81 97 115 131 142 149 142 128 124 133 111 100 105 97

GFSNW_con_3kmhel_099.txt.gz
Helicity
68 61 57 51 49 29 20 41 48 80 24 53 54 47 13 34 7 -29 0 120 178 230 323 201 118 133 183 162 124 28 54 45 -19 12 10 41 -8 27 14 41 35 60 141 54
66 61 51 47 54 59 55 46 80 63 25 69 51 18 11 -2 34 -11 -70 -5 48 153 120 131 160 219 256 318 147 94 100 41 29 36 51 10 69 14 31 58 57 50 51 51
60 54 48 44 52 58 52 61 75 91 46 59 27 20 17 5 -3 -24 -58 -65 -37 31 79 188 313 353 292 211 215 190 135 58 8 14 12 32 54 54 52 36 53 40 51 42
63 56 49 58 57 57 58 74 63 86 70 56 20 8 15 -3 32 -13 -26 -58 -36 -12 33 214 529 633 380 251 263 148 164 60 113 92 54 38 46 48 40 34 77 73 105 66
62 53 59 59 56 39 63 77 63 75 46 19 22 40 4 -6 47 19 4 0 2 -12 -43 77 463 610 412 215 276 176 399 206 26 118 95 109 101 73 61 65 51 49 37 28
61 60 56 53 39 9 63 49 65 70 45 37 39 46 -2 -19 21 -20 2 38 24 -5 22 68 107 103 144 256 295 322 285 227 189 104 92 52 94 130 86 66 113 139 133 113
51 47 54 53 33 7 39 48 63 87 72 50 45 21 -6 -7 18 18 16 10 28 69 96 96 33 31 44 26 31 10 379 267 167 112 75 81 87 112 113 94 127 147 162 95
53 47 45 45 22 6 18 43 63 83 87 47 43 39 33 8 5 7 18 5 24 50 83 44 -16 18 10 3 13 10 46 60 45 137 151 67 48 96 106 130 30 99 100 79
37 44 50 36 30 22 26 39 29 50 90 98 37 33 20 50 58 24 10 26 19 34 50 30 14 12 44 35 13 9 37 70 77 48 39 53 143 137 105 77 44 88 71 66
51 45 31 46 29 32 29 51 24 32 87 22 30 47 26 19 51 43 21 50 23 48 57 46 28 21 36 50 56 56 48 37 55 39 55 47 110 188 152 81 82 28 31 60
47 59 15 30 26 24 34 43 33 36 45 4 -11 0 3 20 29 58 42 62 25 39 65 56 41 46 46 39 34 48 50 39 44 31 37 54 138 62 89 73 54 59 65 54
48 50 29 33 33 29 36 32 -8 10 15 -4 -5 -30 36 -6 -11 31 39 41 43 45 51 45 38 50 44 36 23 61 32 56 38 55 58 47 38 57 62 72 63 80 62 43
31 41 24 31 34 26 13 23 1 39 32 -4 10 35 30 13 -24 -22 18 15 45 34 38 28 27 36 31 43 41 48 25 49 30 2 42 49 43 26 34 49 57 46 33 22
32 37 26 26 29 15 -3 11 10 39 7 12 24 25 25 23 -6 -17 -6 15 19 26 14 32 35 39 29 34 35 42 46 35 39 27 17 7 31 56 53 52 46 43 42 46
31 29 11 26 21 19 -5 -12 12 -3 -8 2 -5 34 38 30 -6 -13 -9 -11 -2 6 19 27 29 28 37 22 20 45 41 46 47 53 42 54 53 48 47 46 46 41 41 37
44 34 24 20 20 28 23 21 -7 17 5 -32 -22 19 7 4 -18 -6 4 28 -13 5 10 17 19 17 20 32 39 40 37 31 33 23 24 36 16 7 10 20 33 30 32 40
35 16 24 26 27 27 44 51 38 25 71 17 -8 -20 14 -18 -18 11 29 44 30 4 8 -3 4 28 22 26 39 39 13 29 34 18 0 13 2 25 18 26 15 13 40 62
21 23 8 -18 3 21 -30 -22 18 98 129 40 2 0 10 41 14 8 20 19 26 17 10 14 12 17 22 35 43 21 26 25 34 37 44 64 43 32 34 29 22 24 40 42
37 -16 -54 6 48 42 -25 16 -19 36 27 24 25 10 5 24 22 23 13 17 4 26 7 -1 7 13 21 53 41 42 52 35 37 34 37 45 59 64 64 64 61 67 64 69
10 27 87 71 64 145 207 87 52 37 34 34 20 8 -2 3 -1 15 10 3 -4 6 2 31 19 15 28 73 97 74 45 55 44 16 23 25 34 52 71 76 78 83 84 82
42 76 56 91 177 108 91 79 68 48 22 18 27 10 -18 6 3 6 0 -3 -1 -11 7 1 -22 7 67 43 74 82 79 72 74 91 88 77 66 49 52 63 75 79 89 104
79 81 92 159 77 79 80 66 65 22 16 23 15 8 -14 -3 7 -6 -5 1 12 32 13 -18 -5 20 33 63 61 57 59 69 78 75 78 83 89 84 82 85 104 113 96 73
66 105 124 121 108 84 57 47 60 34 4 14 39 28 10 18 17 5 2 14 26 9 -6 -13 0 48 60 57 55 68 72 75 83 93 102 110 109 103 85 77 63 59 69 70
93 141 155 143 78 55 31 37 28 61 26 -1 27 11 23 -4 -10 -1 21 2 10 27 17 -3 14 70 65 53 50 59 84 103 101 89 79 75 76 85 86 79 65 63 70 61
153 98 139 87 72 73 54 59 48 40 12 28 23 29 16 11 3 2 5 17 24 16 -14 22 83 104 95 80 84 95 98 79 69 67 78 85 80 77 83 78 79 78 74 80
88 122 95 89 63 43 30 28 54 24 32 24 16 26 24 12 17 3 14 7 -2 -21 33 103 131 120 96 96 100 87 72 73 82 82 77 77 75 73 87 85 87 82 81 77
115 123 127 97 108 60 60 67 39 48 24 46 25 18 18 17 -9 -12 -12 -2 35 77 98 104 106 102 116 103 88 84 76 72 73 73 74 78 84 79 71 73 109 64 99 78

GFSNW_con_3kmhel_102.txt.gz
Helicity
43 41 39 42 54 53 13 40 51 64 19 36 41 53 19 10 1 14 -29 -12 -29 99 100 58 154 291 173 344 96 -9 -23 -13 7 -1 60 52 29 54 17 79 103 -50 95 56
34 32 40 50 65 70 40 56 76 43 31 57 64 59 41 21 9 10 43 -87 -46 -24 8 -15 118 470 349 268 63 104 123 11 8 24 48 10 59 28 52 30 45 71 125 31
34 38 40 54 57 74 68 65 60 64 35 62 55 65 69 34 15 12 29 -26 -55 -67 -57 18 68 427 245 132 167 150 74 27 15 33 72 46 -4 -0 17 69 22 137 60 11
33 36 40 55 70 97 80 68 40 61 57 57 51 51 50 36 36 8 -2 31 12 -41 -46 65 200 492 351 159 188 48 -11 -10 65 51 62 -4 5 20 25 76 93 51 78 26
40 43 46 64 90 110 77 63 67 44 25 42 45 82 65 26 15 8 34 63 46 -12 -53 -3 359 456 224 120 161 19 132 120 130 191 72 -0 86 134 67 55 114 77 72 33
34 41 55 64 82 95 72 59 53 44 41 45 56 96 47 6 -7 13 -2 56 51 8 21 15 133 118 70 245 88 120 303 105 107 191 61 90 250 137 93 185 224 207 173 73
42 53 64 79 54 62 86 82 66 62 46 46 92 70 37 24 6 -3 3 9 49 69 98 103 70 21 -34 27 92 102 263 285 161 69 145 143 106 66 95 121 185 184 151 106
51 50 59 52 37 51 83 69 65 58 44 58 72 66 45 19 19 38 29 20 11 43 127 30 -6 20 -15 -8 -26 7 49 291 198 145 83 58 109 172 269 84 91 187 126 71
43 45 50 35 47 56 61 60 45 60 57 123 65 76 63 78 49 35 49 19 24 22 99 40 15 20 29 44 3 18 18 50 87 99 44 50 80 159 170 176 46 106 71 74
47 44 41 43 54 47 61 51 44 52 58 103 98 113 58 33 41 34 66 41 42 36 74 70 40 34 60 48 46 12 56 49 79 74 29 30 164 179 123 94 76 68 62 68
47 44 36 41 37 44 62 57 37 60 59 48 58 30 25 18 30 33 43 67 39 51 79 67 62 59 59 61 62 65 52 96 51 83 53 29 163 50 82 67 50 64 69 66
40 59 40 22 25 33 53 59 24 45 45 8 25 7 -22 -3 -16 7 25 60 52 52 63 57 61 66 66 66 25 53 48 40 30 58 44 37 42 46 50 58 63 68 67 31
40 36 31 24 28 25 32 66 48 50 24 33 28 18 20 22 17 7 -0 9 40 25 15 28 42 72 53 79 38 21 15 46 21 -0 50 47 46 41 39 35 32 40 37 33
33 22 31 22 30 25 20 31 39 38 19 35 35 24 9 28 14 5 -14 20 28 18 14 34 29 54 51 52 37 39 50 43 38 35 38 38 40 38 49 47 46 39 35 44
24 38 39 29 26 21 10 7 10 -10 24 23 -6 -9 8 27 16 -5 -11 -9 3 23 22 33 43 35 40 38 25 54 48 39 43 49 41 42 46 41 36 32 35 35 42 41
20 37 26 24 27 21 47 47 -3 6 21 4 -4 1 5 20 7 -24 10 -18 -1 3 10 36 26 22 16 34 37 38 38 42 29 32 23 36 6 -5 -2 26 41 45 46 59
39 47 38 27 28 29 53 51 11 77 15 5 -8 1 40 17 -11 9 23 15 20 15 3 10 36 50 18 20 47 30 25 37 31 14 4 10 -5 21 24 30 22 16 43 61
53 41 42 48 54 37 -17 17 37 68 34 20 11 12 30 26 -4 -5 19 14 8 -0 1 23 10 16 18 42 34 25 32 36 35 27 38 48 36 31 39 40 54 56 89 87
44 50 51 71 57 2 -22 -14 4 9 18 28 6 15 12 2 11 10 20 18 6 -7 -0 -2 9 15 42 69 55 78 62 39 24 25 43 49 73 72 81 95 99 142 127 115
53 68 89 77 9 23 84 21 30 30 35 37 8 12 12 20 13 5 25 9 -9 1 11 10 5 34 77 48 106 118 61 62 71 26 34 36 51 79 89 99 100 106 94 95
99 96 109 47 42 66 45 65 69 62 33 17 25 15 -9 13 5 13 4 5 -7 -4 17 -7 -7 -29 52 56 82 91 89 78 83 114 129 126 126 87 71 69 74 85 102 100
61 94 38 104 46 50 58 63 75 49 27 15 14 6 8 13 22 1 1 7 6 -11 10 10 9 2 52 72 69 80 95 93 101 112 105 102 114 117 132 127 115 98 75 61
75 105 73 89 53 59 89 76 81 48 17 20 51 51 46 12 34 11 8 3 16 13 7 -2 -3 56 68 65 69 93 78 75 95 116 121 126 127 126 90 82 74 72 77 73
95 75 60 109 84 87 61 43 49 74 58 43 26 38 33 48 30 11 19 13 17 31 17 -14 27 99 117 108 80 68 81 111 110 98 84 78 82 93 97 91 76 78 97 95
103 105 72 124 90 132 107 90 96 78 44 52 13 33 38 16 -2 -5 8 25 34 22 -4 22 97 117 123 106 96 85 82 79 76 73 77 71 65 81 97 95 105 107 105 114
104 58 97 162 103 69 92 57 53 51 20 4 17 23 26 15 19 11 30 27 13 -10 39 106 129 136 119 105 93 75 61 68 81 83 83 87 81 75 96 93 101 95 100 93
92 86 91 193 135 72 60 48 52 31 27 43 31 29 32 16 6 1 10 1 33 82 91 104 123 103 107 83 72 71 81 93 94 88 84 80 72 64 45 54 72 49 79 67

GFSNW_con_3kmhel_105.txt.gz
Helicity
68 65 68 90 90 96 57 51 39 2 0 52 49 58 52 34 36 17 37 20 56 119 29 21 8 10 -21 238 192 -19 34 17 13 10 3 31 122 1 21 -52 -6 -18 180 118
80 66 83 98 98 94 74 65 52 -4 26 63 50 55 85 65 54 22 33 77 56 -3 -92 -84 11 -8 95 86 107 47 15 -29 1 18 2 8 8 -5 4 -7 23 66 169 234
68 74 95 105 97 88 64 73 50 40 20 34 47 63 67 77 27 48 48 44 72 -44 -58 -26 -32 50 103 133 93 77 8 -49 -62 61 32 7 20 29 41 1 3 29 48 -10
53 69 96 105 92 97 89 66 49 51 32 13 36 31 63 72 72 33 27 17 36 5 -48 -33 15 115 279 121 82 40 -35 -71 -17 -35 43 58 19 8 78 90 -6 38 106 62
62 56 88 99 108 132 90 66 90 43 41 41 27 38 53 61 58 58 40 14 20 32 -61 -100 79 212 89 -2 94 21 21 52 156 66 59 175 41 159 223 213 214 103 26 3
51 61 95 98 117 157 121 94 59 58 37 11 34 64 70 42 44 35 14 5 6 35 32 6 80 159 26 37 58 42 4 61 188 123 44 33 170 120 180 267 244 72 85 15
54 54 91 100 117 146 145 103 80 84 72 62 84 67 52 54 58 81 47 14 -20 19 52 70 36 10 -1 36 22 31 105 123 106 91 52 145 91 139 92 100 191 164 45 18
44 50 85 79 86 117 121 113 102 87 92 149 157 84 69 73 108 115 100 67 -17 2 39 11 11 -10 12 -21 -44 4 143 199 95 93 147 38 92 116 117 34 100 129 82 44
46 52 61 63 52 88 132 101 82 86 119 156 131 96 136 92 76 59 119 54 26 3 7 46 50 24 34 32 25 5 43 44 53 110 94 75 58 198 127 -29 37 84 68 66
51 50 55 46 57 94 103 77 86 67 90 129 151 104 76 65 76 60 37 20 34 40 67 53 62 49 66 43 48 37 34 55 91 127 35 25 158 187 112 34 28 42 36 73
54 46 42 48 58 86 111 73 67 61 59 60 71 73 62 40 56 60 17 42 50 93 84 29 54 70 73 56 10 28 17 52 41 28 22 26 140 44 69 40 49 60 50 48
46 37 38 54 60 79 102 62 40 30 40 22 24 17 24 11 31 28 15 31 45 51 64 59 34 82 97 106 44 40 39 30 35 43 28 27 28 19 30 50 48 57 36 12
31 45 39 41 50 56 93 58 30 36 37 27 29 17 8 20 13 28 27 12 21 37 -6 22 36 53 85 111 47 9 12 -1 18 10 28 46 39 41 42 31 36 30 32 13
24 37 39 43 42 50 56 45 19 28 23 57 45 -6 4 9 34 37 28 11 5 1 21 32 47 57 40 75 54 22 26 35 22 23 35 38 40 44 43 55 53 39 45 83
28 26 37 30 37 46 40 27 9 17 27 30 17 -9 -16 8 51 17 28 20 7 17 25 24 42 65 64 43 32 35 35 18 20 27 34 37 32 30 19 42 45 55 90 94
20 28 33 35 37 36 64 36 13 31 9 4 23 -22 -10 15 20 28 32 22 20 23 18 13 27 32 44 71 44 14 8 21 13 14 24 38 -2 -14 -36 24 41 61 82 79
14 40 37 36 35 33 85 53 37 23 -7 0 7 -9 15 34 39 19 44 43 40 25 14 8 27 68 37 38 47 20 22 26 33 22 4 4 -11 21 45 32 21 102 118 125
30 55 49 35 35 38 36 26 38 70 6 0 16 33 13 17 27 6 10 17 17 8 -3 17 40 55 33 34 31 33 39 33 29 33 46 67 88 153 154 152 181 227 166 121
49 57 45 63 61 41 35 -8 6 5 24 14 4 17 23 -13 -6 -1 7 6 5 -14 -6 1 31 30 52 64 51 88 67 62 34 42 56 88 115 127 123 117 127 132 112 101
56 84 66 57 36 21 48 45 50 40 28 9 2 6 13 14 5 0 17 5 -16 -13 -23 0 25 33 41 60 112 119 115 107 116 69 104 112 128 105 74 61 71 90 103 99
114 75 93 83 2 60 54 46 50 50 19 10 4 48 37 14 9 2 6 4 -15 -9 -10 8 -13 29 41 113 141 154 159 108 96 155 168 175 151 114 107 106 114 105 93 74
49 42 51 43 52 73 59 49 55 30 19 0 40 14 23 30 18 32 -16 8 2 -15 -2 7 -14 22 97 126 122 124 121 140 152 139 160 185 200 184 151 107 82 71 67 68
54 44 47 79 50 48 72 53 44 22 7 20 39 41 33 28 11 8 1 7 -13 11 18 28 8 72 89 126 142 131 130 134 146 139 124 118 120 88 80 74 63 68 76 65
94 133 112 87 67 83 37 30 41 40 52 80 66 63 43 28 22 10 2 10 13 21 17 2 28 109 142 125 92 97 97 94 97 91 80 75 77 79 75 75 70 88 89 84
131 124 138 60 48 73 46 71 105 96 78 79 57 53 37 34 34 13 9 20 38 24 2 3 99 139 157 135 94 92 91 73 63 58 59 51 47 61 65 75 87 91 82 77
171 116 53 67 86 49 92 71 79 92 70 60 41 32 46 36 16 8 34 33 20 9 9 92 143 149 131 104 93 66 38 61 69 60 53 60 59 60 61 70 69 60 66 66
111 87 29 127 80 63 67 33 37 71 60 45 30 26 40 25 22 29 21 4 -2 55 80 106 134 125 100 83 62 50 58 71 69 75 80 62 57 73 62 49 38 59 56 84

GFSNW_con_3kmhel_111.txt.gz
Helicity
677 539 258 98 52 82 176 232 191 149 95 117 119 80 67 79 64 49 54 79 69 77 80 27 54 85 83 7 21 1 33 14 3 15 -1 -23 -47 -10 -35 -27 -19 -15 -13 -32
444 334 81 75 55 102 217 256 229 186 124 89 120 101 97 78 60 48 59 59 62 76 77 47 87 80 96 5 -8 -32 -3 -84 -66 -42 -70 -29 -26 -19 -12 -73 -18 27 -2 43
346 86 75 48 65 106 293 258 171 193 144 102 113 112 95 73 55 48 54 52 73 48 81 68 57 101 27 65 -26 -4 -4 -20 -6 60 93 -0 5 30 1 -23 13 173 123 56
123 89 43 57 120 173 270 215 131 122 121 109 124 114 76 81 66 53 74 78 63 47 48 67 55 140 51 33 -15 25 -6 16 94 156 216 268 272 158 41 39 94 128 48 67
93 21 83 127 153 168 220 145 120 164 127 129 130 93 51 58 55 62 72 69 27 49 63 56 57 67 30 -9 22 30 6 131 48 112 130 471 389 447 446 326 94 25 25 47
-1 107 94 123 167 196 166 163 162 145 171 126 99 46 50 42 58 65 94 53 38 47 41 44 101 141 102 174 118 101 49 77 22 128 104 248 352 250 166 136 155 56 34 8
89 88 123 161 144 156 147 174 165 149 154 112 55 57 62 81 74 77 62 43 40 15 -14 -3 28 22 -9 -18 -24 34 40 81 38 71 94 108 11 13 38 83 105 101 33 6
49 100 144 160 176 134 175 159 147 141 173 133 112 85 91 87 85 63 47 30 10 -4 33 18 21 24 36 5 -0 13 12 13 49 41 95 63 4 9 10 52 75 71 -1 -11
80 131 134 179 181 151 207 186 125 150 183 137 146 117 66 75 69 56 48 29 35 35 58 42 80 50 36 39 48 3 35 -17 65 65 117 105 65 90 -18 -38 47 47 24 11
92 119 152 155 146 125 139 164 162 148 151 141 100 88 66 55 55 63 45 54 76 50 79 97 75 32 35 57 59 53 87 61 129 148 87 73 93 57 5 16 17 15 17 19
94 99 135 146 137 110 120 160 187 121 106 121 114 75 60 53 55 61 39 66 63 88 102 75 58 60 55 34 45 58 87 125 140 113 110 87 108 34 40 16 9 13 6 7
108 102 128 136 128 122 113 138 161 136 115 63 72 64 32 47 29 45 33 55 50 55 70 62 62 83 79 56 53 74 79 39 73 66 36 23 33 47 47 39 44 6 4 6
82 97 102 101 117 125 99 117 130 129 124 97 83 72 68 25 14 10 43 6 11 28 20 44 54 76 92 70 40 30 36 44 17 13 19 23 15 24 22 18 28 44 20 18
91 92 96 122 128 130 102 117 133 109 107 79 58 70 36 22 17 3 10 15 13 16 20 44 54 59 46 72 34 7 11 30 13 22 15 12 18 20 21 50 44 65 105 98
76 112 104 101 111 118 122 113 141 111 63 54 53 58 21 -13 23 1 11 16 10 9 14 36 51 60 66 62 40 26 32 14 8 5 -3 2 -5 -0 10 40 41 37 51 66
81 85 84 82 88 98 119 120 108 97 82 96 55 35 26 12 7 12 8 12 8 13 16 7 15 29 58 59 46 35 7 11 -4 -12 8 18 5 -7 18 32 39 44 40 24
72 68 73 80 106 124 87 54 78 73 65 71 56 38 -2 10 23 16 17 29 7 15 12 9 18 47 52 61 49 31 1 17 25 15 22 46 36 25 80 85 71 74 67 55
67 75 76 88 120 122 99 88 86 52 74 64 39 21 -5 4 12 13 10 21 16 13 14 2 12 40 44 67 27 8 7 19 18 30 54 62 63 100 93 72 64 74 63 57
63 67 84 134 137 132 96 67 65 43 45 32 24 39 22 3 14 7 11 15 31 2 12 17 29 45 51 43 22 32 28 13 31 25 22 31 61 80 72 64 67 68 64 65
78 120 146 135 124 86 51 82 69 46 33 26 20 9 9 16 15 14 14 17 15 17 5 16 21 16 22 65 87 89 99 108 108 106 73 76 91 70 61 68 66 61 56 58
138 145 125 138 89 93 84 56 48 44 38 13 14 -17 16 5 26 9 8 -2 3 7 -0 14 -8 -13 23 50 82 80 81 80 88 92 88 71 71 69 70 74 71 61 60 51
103 93 122 125 105 82 63 39 36 25 44 31 17 -2 21 34 29 29 8 15 24 11 6 -7 -33 -0 59 72 54 54 49 52 69 63 84 97 101 83 76 69 72 70 68 64
133 179 132 98 71 62 44 29 33 24 18 13 22 41 39 39 37 36 24 27 10 -1 -8 -33 -18 38 64 51 63 65 55 55 63 81 88 83 78 75 78 91 78 83 87 65
183 160 129 81 62 39 19 13 39 6 14 7 32 58 47 49 61 40 40 15 14 -1 -16 -18 -1 16 55 62 66 71 59 62 63 58 57 70 78 82 77 81 72 87 78 73
187 124 119 89 46 35 20 32 31 28 3 58 60 55 46 61 71 47 43 22 -9 -1 18 8 -8 56 91 91 63 59 53 48 43 42 59 65 74 91 91 83 83 92 98 92
150 103 115 105 28 21 19 37 49 49 39 71 52 51 58 56 63 44 19 14 18 24 19 9 61 79 88 73 61 55 40 44 52 54 59 70 81 91 93 91 86 84 93 90
148 135 86 47 53 47 37 25 31 59 63 53 52 54 30 53 42 28 -9 1 20 15 8 22 32 83 90 92 70 56 53 60 60 62 63 69 77 93 95 92 96 103 104 118

GFSNW_con_3kmhel_114.txt.gz
Helicity
1227 1104 927 931 592 502 442 463 524 199 174 226 188 177 74 115 92 94 77 67 50 46 74 77 61 29 -21 47 11 55 54 45 59 151 81 69 63 -59 -56 -14 -1 60 -54 -41
1178 1020 918 855 642 704 724 629 554 263 253 305 253 151 143 125 111 86 61 44 46 57 64 80 64 25 60 40 27 23 14 41 28 -9 21 43 8 -9 -1 -15 99 12 10 -15
1110 1011 888 721 509 363 401 699 651 330 204 209 168 181 146 122 109 95 63 65 68 52 59 60 63 46 45 82 52 22 -14 24 -12 -20 10 33 9 -4 36 48 54 169 112 43
1115 1010 616 295 185 209 538 519 471 243 305 185 137 183 124 122 99 80 63 66 61 55 57 87 91 59 57 58 33 16 -5 7 -19 -39 127 146 296 227 126 88 56 78 51 40
1019 688 384 362 149 252 494 537 432 262 181 201 193 155 95 107 103 90 71 58 53 44 60 73 98 74 65 47 36 19 9 -17 1 11 48 207 343 445 300 110 -3 -3 4 12
418 396 371 245 145 259 386 262 240 198 178 183 170 134 103 84 87 104 64 68 49 37 40 32 59 110 122 98 54 37 19 24 -6 6 71 157 167 264 135 114 140 -8 13 23
426 331 170 101 112 231 156 182 232 165 200 139 132 123 122 89 62 74 57 38 39 32 17 -0 32 36 28 27 1 57 8 64 19 38 8 83 78 39 46 48 95 52 -1 -15
210 134 98 123 77 119 197 181 179 144 181 147 140 122 124 118 112 82 51 24 13 22 38 66 85 110 68 31 36 32 -38 10 34 31 67 55 78 34 53 62 56 46 28 9
77 121 104 78 89 134 180 240 191 162 205 129 130 139 105 99 85 73 41 18 33 50 74 91 139 151 105 77 51 9 -6 -3 39 70 89 68 64 45 -11 -0 59 43 39 27
136 123 133 166 156 128 166 200 190 157 143 177 163 126 85 67 72 64 47 41 54 59 104 126 148 122 72 79 67 65 22 11 93 176 120 98 101 77 24 38 37 52 40 28
147 162 164 121 151 141 158 202 199 129 110 169 146 107 76 77 54 59 36 68 74 100 124 124 120 118 91 61 57 62 32 39 70 92 167 168 113 64 44 36 36 23 17 16
157 144 142 136 129 137 165 195 213 187 135 128 141 120 77 56 23 45 45 69 84 76 106 92 88 93 63 66 61 46 47 38 73 83 70 38 59 80 70 47 36 11 6 16
122 124 146 138 131 107 105 180 197 192 177 178 132 112 83 34 25 16 62 51 39 42 33 58 60 70 53 69 32 6 3 50 50 21 14 26 37 54 43 43 34 24 18 33
118 131 164 154 133 134 140 177 188 150 163 103 113 99 90 43 7 37 49 30 17 15 17 47 56 53 52 68 60 22 -2 -0 19 38 17 25 31 30 31 41 39 54 76 58
118 132 151 130 102 123 166 194 204 148 81 87 92 86 88 14 26 43 31 19 9 17 33 38 45 41 63 57 41 34 27 16 -1 -1 13 23 31 34 26 32 29 24 30 45
99 107 111 130 146 149 155 154 158 167 152 157 90 74 61 29 37 46 17 6 -0 3 17 24 19 13 62 66 48 41 43 24 5 13 27 39 47 27 22 34 27 32 38 31
90 102 120 133 127 119 109 75 111 141 120 96 99 72 38 34 31 25 12 14 7 17 28 40 35 25 30 66 63 37 31 27 43 39 45 58 28 17 46 61 54 57 58 53
105 109 137 151 108 107 125 167 135 130 85 91 53 52 41 25 17 16 14 14 16 16 22 24 35 28 32 64 45 21 20 37 35 41 52 44 67 79 59 50 42 54 51 49
86 103 132 167 183 147 109 106 100 88 65 55 49 52 41 10 13 11 13 20 26 6 38 32 40 35 19 -10 11 16 17 22 32 51 51 42 55 57 50 51 49 54 50 48
108 173 193 173 151 103 97 122 93 97 85 61 67 42 45 12 10 12 15 17 23 31 16 29 28 10 -42 5 51 62 64 85 105 93 44 57 54 51 51 54 44 42 36 36
180 174 151 153 101 112 102 92 97 91 84 64 56 34 40 13 26 19 7 12 9 20 7 22 3 -11 -9 63 106 97 95 97 87 72 81 64 63 55 47 47 49 46 46 43
108 98 140 117 108 91 60 87 86 75 58 65 50 20 34 25 19 19 7 18 18 7 17 13 2 -14 46 83 84 81 58 49 73 68 81 91 89 64 60 55 60 65 73 74
163 186 128 91 76 72 61 70 83 59 38 21 30 49 27 29 19 23 23 29 12 23 15 -10 -17 10 56 87 79 65 57 57 65 82 85 78 68 61 60 81 75 82 87 72
164 131 112 95 65 57 73 101 99 54 51 18 41 64 29 28 34 33 45 24 29 23 -3 -27 -0 39 58 70 74 84 61 60 65 61 54 58 62 70 70 83 80 91 83 72
142 119 98 84 60 97 110 100 91 54 5 23 55 53 29 38 65 50 41 38 17 -11 -16 12 -4 55 78 86 76 70 54 54 36 33 46 54 56 71 68 53 63 78 88 88
151 97 96 111 86 96 97 103 103 35 -2 45 43 33 34 39 57 62 48 32 -1 -1 9 16 44 67 71 82 64 58 49 35 41 44 55 58 66 69 62 62 68 82 98 99
145 132 85 84 77 76 90 79 51 50 38 32 38 38 32 47 55 48 25 7 4 13 18 22 27 56 79 103 96 64 54 55 59 63 62 69 67 76 84 88 84 99 112 131